Tracking 19242 objects as of 20-Sep-2018
HD Live streaming from Space Station
objects crossing your sky now

PEGASUS R/B

Track PEGASUS R/B now!
10-day predictions


NORAD ID: 23548
Int'l Code: 1995-017D
Perigee: 723.4 km
Apogee: 738.9 km
Inclination: 70.0 °
Period: 99.3 minutes
Semi major axis: 7102 km
RCS: 1.5717 m2 (large)
Launch date: April 3, 1995
Source: United States (US)
Launch site: AIR FORCE WESTERN TEST RANGE (AFWTR)

Note: This is a ROCKET BODY
aabbcc
Your satellite tracking list
Your tracking list is empty




NASA's NSSDC Master Catalog

Two Line Element Set (TLE):
1 23548U 95017D   18262.53491747 +.00000009 +00000-0 +18080-4 0  9993
2 23548 069.9890 307.3442 0010918 191.9523 324.9167 14.50497629240394
Source of the keplerian elements: AFSPC